Location: Killam
(52.7910°N, 111.8608°W)
Time: 04:39:43
(UTC+00:00)

Transit 2A - Pass Details

Date: 15 February 2026
Orbit: 590 x 954 km, 66.7° (Epoch: 14 March)

Event Time Altitude Azimuth Distance (km) Brightness Sun altitude
Rises 01:46:59 0° 302° (WNW) 3,638 10.4 -10.9°
Reaches altitude 10° 01:50:09 10° 316° (NW) 2,687 9.4 -11.4°
Maximum altitude 01:55:05 23° 8° (N) 1,877 7.9 -12.1°
Enters shadow 01:59:14 12° 55° (NE) 2,432 8.1 -12.8°
